Location: Newark
(49.3000°N, 9.4667°E)
Time: 14:26:06
(UTC+00:00)

Transit 2A Rocket - Pass Details

Date: 26 May 2019
Orbit: 587 x 917 km, 66.7° (Epoch: 24 June)

Event Time Altitude Azimuth Distance (km) Brightness Sun altitude
Rises 01:19:53 0° 320° (NW) 3,433 8.7 -14.7°
Reaches altitude 10° 01:22:32 10° 315° (NW) 2,447 7.8 -14.5°
Maximum altitude 01:27:50 44° 245° (WSW) 1,071 5.4 -14.1°
Enters shadow 01:31:52 15° 177° (S) 1,941 6.6 -13.7°
